Location: Gad�tanya
(48.0500°N, 20.8500°E)
Time: 23:11:08
(UTC+00:00)

Gbstr 26 Del rocket - Pass Details

Date: 05 July 2020
Orbit: 492 x 1264 km, 51.8° (Epoch: 05 August)

Event Time Altitude Azimuth Distance (km) Brightness Sun altitude
Exits shadow 22:49:26 54° 162° (SSE) 647 2.8 -19.3°
Maximum altitude 22:49:38 55° 148° (SSE) 643 2.8 -19.3°
Drops below altitude 10° 22:53:46 10° 70° (ENE) 1,909 5.8 -19.2°
Sets 22:56:16 0° 67° (ENE) 2,917 6.9 -19.2°
